Погода в Важкуръя

Россия / Республика Коми     61°51′33″N   51°54′52″E
темп.,
°C
ветер,
м/с
пор.,
м/с
влажн.,
%
обл.,
%
осадки,
мм/ч
давл.,
гПа
погр.,
м
16 мая, вс
вс1600:00+14юв1485100 0.7 1012158
03:00+13юв2497100 0.7 1012109
06:00+16ю3786100 0.1 1011346
09:00+22юз486329 0.1 10101212
12:00+25юз611395 0.0 10092574
15:00+26юз611355 0.0 10082879
18:00+23юз59450 0.0 10081565
21:00+18юз4136518 0.4 1008545
17 мая, пн
пн1700:00+16юз412755 0.1 1009599
03:00+14юз411862 0.1 1009540
06:00+16зюз5107662 0.0 1010842
09:00+16з51072100 0.1 10111315
12:00+16з5106499 0.1 10131375
15:00+16зсз5970100 0.1 10141267
18:00+14зсз487598 0.1 10161014
21:00+12сз4779100 0.1 1018794
18 мая, вт
вт1800:00+11сз3783100 0.0 1019711
03:00+9ссз268585 0.0 1021438
06:00+10ссв247099 0.0 1022465
09:00+16ссв224583 0.0 1023913
12:00+19св223699 0.0 10231247
15:00+21в113397 0.0 10221367
18:00+19вюв124399 0.0 102261
21:00+14вюв225782 0.0 102332
19 мая, ср
ср1900:00+12ююв396653 0.0 1023149
03:00+11ю298284 0.0 1023162
06:00+16ю4963100 0.0 1023370
09:00+21ю4649100 0.0 1021898
12:00+25ю453760 0.0 10201526
15:00+26ююз453319 0.0 10191791
18:00+24ююз37414 0.0 1018457
21:00+18ю39630 0.0 1018169
20 мая, чт
чт2000:00+15ююз39720 0.0 1018156
03:00+14ююз31075100 0.0 1018181
06:00+18ююз36575 0.0 1018307
09:00+24ю463514 0.0 10161160
12:00+27ююз573086 0.0 10141943
15:00+27ююз5732100 0.0 10132071
18:00+24ю4937100 0.0 1012572
21:00+18ююв3955100 0.0 1012175